266  
FPUS83 KFGF 280831  
OPUFGF  
PRAIRIE TO PINES WEATHER ROUNDUP  
NATIONAL WEATHER SERVICE EASTERN NORTH DAKOTA/GRAND FORKS ND  
300 AM CDT THU OCT 28 2021  
 
**SATELLITE DATA USED TO AUGMENT SKY COVER AT AUTOMATED STATIONS**  
***** WEATHER ACROSS EASTERN NORTH DAKOTA *****  
 
CITY SKY/WX TMP DP RH WIND PRES REMARKS  
GRAND FORKS FAIR 43 42 97 SW6 29.72R  
GRND FORKS AFB CLOUDY 44 43 96 S6 29.72R  
GRND FORKS NWS NOT AVBL  
BUXTON NOT AVBL  
DEVILS LAKE FAIR 38 35 89 SW6 29.74R  
FARGO FOG 46 44 93 SW5 29.75R VSB 3/4  
WAHPETON ARPT FOG 45 45 100 W3 29.75S VSB 1/4  

 
 
***** WEATHER ACROSS CENTRAL AND WESTERN NORTH DAKOTA *****  
 
CITY SKY/WX TMP DP RH WIND PRES REMARKS  
JAMESTOWN FAIR 38 34 85 W8 29.75R  
BISMARCK FAIR 43 34 70 W12 29.83R  
MINOT FAIR 45 35 68 W15 29.78R  
MINOT AFB CLEAR 39 30 70 NW13 29.75R  
GARRISON N/A 42 34 73 NW14 29.80R  
WILLISTON NOT AVBL  
DICKINSON FAIR 42 28 57 W18 29.89R  
HETTINGER FAIR 43 28 55 NW25G33 29.92R  

 
 
***** OTHER OBSERVATIONS NORTHEAST NORTH DAKOTA *****  
 
CITY SKY/WX TMP DP RH WIND PRES REMARKS  
WALHALLA FAIR 45 45 100 W6 29.70S  
LANGDON FAIR 39 39 100 CALM 29.72R  
CAVALIER FAIR 41 41 100 CALM 29.71R FOG  
GRAFTON FAIR 43 43 100 S6 29.73R FOG  
CANDO FAIR 32 32 100 W8 29.76R WCI 25  
FORT TOTTEN N/A 37 36 97 CALM 29.95S  
ROLLA FAIR 37 37 100 W7 29.74R  
RUGBY FAIR 32 32 100 W8 29.75R WCI 25  
***** THE ABOVE OBSERVATIONS ARE NON NWS ARE NOT QUALITY  
CONTROLLED AND MAY MIS-REPORT RAIN FOR SNOW...  

 
 
***** OTHER OBSERVATIONS SOUTHEAST NORTH DAKOTA *****  
 
CITY SKY/WX TMP DP RH WIND PRES REMARKS  
COOPERSTOWN FAIR 37 37 100 W6 29.75R  
VALLEY CITY FAIR 37 37 100 W6 29.77R  
OAKES FAIR 37 37 100 W8 29.78R  
GWINNER SUNNY 41 41 100 SW6 29.77S  
SHEYENNE NWR N/A 41 41 100 CALM 29.95S  
BUFFALO NOT AVBL  
WYNDMERE NOT AVBL  
***** THE ABOVE OBSERVATIONS ARE NON NWS ARE NOT QUALITY  
CONTROLLED AND MAY MIS-REPORT RAIN FOR SNOW...  

 
 
***** WEATHER ACROSS NORTHERN MINNESOTA *****  
 
CITY SKY/WX TMP DP RH WIND PRES REMARKS  
FLAG ISLAND LGT RAIN 45 43 93 S12 29.73R  
WARROAD DRIZZLE 45 39 81 S5 29.74R  
ROSEAU DRIZZLE 46 46 100 S7 29.73R  
HALLOCK FOG 46 46 100 S8 29.72R VSB 3/4  
THF RVR FALLS CLOUDY 45 45 100 S5 29.75R  
HALSTAD NOT AVBL  
FOSSTON DRIZZLE 43 43 100 CALM 29.76R  
BAUDETTE LGT RAIN 43 43 100 SE7 29.76R  
WASKISH LGT RAIN 45 45 100 CALM 29.75S  
CROOKSTON CLOUDY 45 45 100 S5 29.75R VSB 1/2  

 
***** WEATHER ACROSS CENTRAL AND WEST MINNESOTA *****  
 
CITY SKY/WX TMP DP RH WIND PRES REMARKS  
BEMIDJI LGT RAIN 42 42 100 CALM 29.76R  
PARK RAPIDS LGT RAIN 43 43 100 SE6 29.75S  
WADENA LGT RAIN 41 41 100 CALM 29.75S  
DETROIT LAKES CLOUDY 45 43 93 S5 29.76R  
MOORHEAD CLOUDY 45 45 100 CALM 29.76S FOG  
FERGUS FALLS CLOUDY 46 45 93 CALM 29.73S FOG  
ELBOW LAKE DRIZZLE 45 45 100 CALM 29.77R  
MORRIS MN DRIZZLE 46 46 100 N7 29.76R  
STAPLES LGT RAIN 46 45 93 CALM 29.75S  
WHEATON FAIR 46 45 93 CALM 29.78S  

 
***** WEATHER ELSEWHERE ACROSS MINNESOTA *****  
 
CITY SKY/WX TMP DP RH WIND PRES REMARKS  
DULUTH CLOUDY 47 43 86 SE12 29.80R  
INTRNTL FALLS LGT RAIN 43 41 93 SE3 29.76R  
ELY CLOUDY 46 39 76 SE10 29.79S  
CLOQUET DRIZZLE 45 43 93 CALM 29.78S  
BRAINERD RAIN 45 43 93 SE3 29.76S FOG  
HIBBING LGT RAIN 43 41 93 CALM 29.78R  
ALEXANDRIA LGT RAIN 45 45 100 NW6 29.76R  
SAINT CLOUD LGT RAIN 46 44 93 E5 29.75S  
MINNEAPOLIS LGT RAIN 47 45 93 E6 29.76S FOG  

 
 
***** WEATHER ACROSS SOUTH DAKOTA *****  
 
CITY SKY/WX TMP DP RH WIND PRES REMARKS  
SIOUX FALLS CLOUDY 48 44 86 N10 29.74S  
BROOKINGS CLOUDY 45 44 97 NW8 29.76S  
WATERTOWN MOCLDY 44 43 96 NW5 29.76S  
HURON FAIR 39 36 89 NW5 29.80S  
SISSETON N/A 45 44 97 NW5 29.76S  
ABERDEEN FAIR 35 33 92 CALM 29.79R  
MITCHELL FAIR 42 40 92 W8 29.80R  
PIERRE FAIR 47 36 65 NW16 29.86R  
MOBRIDGE FAIR 45 35 68 NW14 29.82R  
RAPID CITY FAIR 48 23 37 NW33G52 30.00R  

 
 
***** SOME WEATHER IN NEARBY STATES *****  
 
CITY SKY/WX TMP DP RH WIND PRES REMARKS  
GLASGOW MT FAIR 38 25 59 N9 30.02R  
GREAT FALLS MT FAIR 39 24 55 SW14 30.15R  
CHEYENNE WY CLOUDY 39 23 52 N15G26 30.14R  
SCOTTSBLUFF NE FAIR 39 28 64 W12 30.10R  
OMAHA NE LGT RAIN 51 48 89 N21G30 29.65F  
DES MOINES IA LGT RAIN 48 47 96 NE9 29.61F  
DAVENPORT IA CLOUDY 48 40 73 E10 29.71F  
CHICAGO IL CLOUDY 49 44 83 SE9 29.74F  
EAU CLAIRE WI LGT RAIN 47 40 76 E6 29.80R  
LA CROSSE WI CLOUDY 50 41 71 E3 29.77F  

 
 
***** SOME NATIONAL WEATHER *****  
 
CITY SKY/WX TMP DP RH WIND PRES REMARKS  
LA GUARDIA NY FAIR 53 41 63 N13 29.89R  
RALEIGH NC FAIR 49 49 100 CALM 29.90R  
ATLANTA GA LGT RAIN 56 47 71 SE10 29.81F  
NEW ORLEANS LA FAIR 68 58 70 W16G23 29.65R  
OKLAHOMA CITY MOCLDY 55 36 48 NW26G35 29.62S  
ALBUQUERQUE NM FAIR 47 24 40 NW12 30.23R  
SALT LAKE CITY FAIR 45 38 76 S5 30.35R  
LOS ANGELES CA FAIR 64 51 62 CALM 30.05F  
BOISE ID CLOUDY 50 41 71 E5 30.30R  
SEATTLE WA LGT RAIN 48 45 89 E7 30.14F  

 
 
*** WEATHER ACROSS MANITOBA...SASKATCHEWAN AND ONTARIO ***  
***ONTARIO***  
 
CITY SKY/WX TMP DP RH WIND PRES REMARKS  
GERALDTON CLOUDY 43 41 93 E6 29.92F  
THUNDER BAY CLOUDY 48 45 87 SE8 29.87S  
SIOUX LOOKOUT LGT RAIN 45 41 87 SE6 29.80S  
TORONTO CLEAR 45 37 76 E5 29.96F  
BIG TROUT LK CLOUDY 43 36 75 S13G20 29.83F  
PICKLE LAKE CLOUDY 43 39 87 S10G17 29.85S  
DRYDEN LGT RAIN 43 41 93 SE6 29.77S  
KENORA LGT RAIN 43 43 100 SE8 29.74R  

 
*** MANITOBA***  
 
CITY SKY/WX TMP DP RH WIND PRES REMARKS  
BRANDON PTCLDY 34 32 93 W8 29.73R  
DAUPHIN CLEAR 36 36 100 W6 29.71R  
ISLAND LAKE LGT RAIN 43 43 100 S7 29.69S  
PILOT MOUND N/A 34 34 100 W3 N/A  
THE PAS LGT RAIN 43 41 93 W9 29.71R  
THOMPSON FOG 41 41 100 W2 29.65S VSB 1  
WINNIPEG FOG 45 45 100 S6 29.69S VSB 1/2  
LYNN LAKE CLOUDY 37 37 100 W3 29.66S  
CHURCHILL CLOUDY 36 36 100 S5 29.68F  
GILLAM DRIZZLE 39 39 100 S6 29.68S  

 
***SASKATCHEWAN***  
 
CITY SKY/WX TMP DP RH WIND PRES REMARKS  
ESTEVAN CLEAR 36 32 87 W12 29.84R  
KINDERSLEY CLEAR 25 19 80 W6 29.91R WCI 18  
LLOYDMINSTER CLEAR 39 23 52 W16G22 29.86R  
PRINCE ALBERT PTCLDY 34 32 93 W9 29.81R  
REGINA PTCLDY 36 28 75 NW13 29.87R  
YORKTON FOG 34 34 100 NW10 29.78R VS  
 
CLICK HERE TO GO TO PREVIOUS BULLETINS.

The Nexlab ND Page
The Nexlab MN Page Main Text Page